contact:dominique.lefevre@mio.osupytheas.fr, maurice.libes@osupytheas.fr, didier.mallarino@osupytheas.fr
Project:EMSO http://www.emso-fr.org/EMSO-France
Depth: 2436.0 m
Title:EMSO Ligure Ouest : Data MII capteur AQUADOPP
Date,Latitude,Longitude,X_East,Y_North,Z_Up,Amplitude_X,Amplitude_Y,Amplitude_Z,Batterie,SoundSpeed,Heading,Pitch,Roll,Pressure,TIS,Speed,Direction
, degrees North, degrees East, m.s-1, m.s-1,m.s-1, 1, 1, 1, Volt, m.s-1, degree, degree, degree, dbar, degree_C, m.s-1, degree
2020-03-14T00:04:02,42.805,6.029,-0.016,0.028,0.0,104.0,107.0,101.0,13.4,1505.3,325.4,-0.7,1.9,2470.4,13.31,0.032,330.3
2020-03-14T00:07:02,42.805,6.029,-0.031,0.027,-0.019,104.0,107.0,100.0,13.4,1505.3,325.5,-0.7,1.9,2470.367,13.31,0.041,311.1
2020-03-14T00:10:03,42.805,6.029,-0.039,0.028,-0.016,104.0,107.0,101.0,13.4,1505.3,325.1,-0.7,1.8,2470.373,13.32,0.048,305.7
2020-03-14T00:13:03,42.805,6.029,-0.026,0.019,-0.023,105.0,107.0,101.0,13.3,1505.3,324.7,-0.7,1.8,2470.343,13.32,0.032,306.2
2020-03-14T00:16:03,42.805,6.029,-0.048,0.022,-0.068,105.0,106.0,102.0,13.4,1505.3,323.4,-0.7,1.9,2470.337,13.32,0.052,294.6
2020-03-14T00:19:03,42.805,6.029,-0.035,0.006,-0.038,104.0,106.0,101.0,13.4,1505.3,325.0,-0.7,1.8,2470.34,13.32,0.035,279.7
2020-03-14T00:22:02,42.805,6.029,-0.068,0.005,-0.031,104.0,107.0,101.0,13.4,1505.3,323.4,-0.7,1.8,2470.342,13.32,0.068,274.2
2020-03-14T00:25:03,42.805,6.029,-0.036,0.014,-0.028,104.0,107.0,101.0,13.4,1505.3,326.9,-0.7,1.8,2470.346,13.32,0.038,291.2
2020-03-14T00:28:03,42.805,6.029,-0.04,0.024,-0.022,104.0,106.0,101.0,13.3,1505.3,325.4,-0.7,1.9,2470.352,13.32,0.046,301.0
2020-03-14T00:31:03,42.805,6.029,-0.06,0.023,-0.049,103.0,107.0,101.0,13.3,1505.3,323.2,-0.8,1.8,2470.319,13.33,0.064,291.0
2020-03-14T00:34:03,42.805,6.029,-0.038,0.02,-0.024,104.0,107.0,101.0,13.3,1505.3,325.9,-0.7,1.8,2470.34,13.33,0.042,297.8
2020-03-14T00:37:02,42.805,6.029,-0.033,0.011,-0.057,103.0,107.0,101.0,13.4,1505.3,328.2,-0.7,1.8,2470.356,13.33,0.034,288.4
2020-03-14T00:40:03,42.805,6.029,-0.066,0.041,-0.024,102.0,108.0,102.0,13.4,1505.3,327.1,-0.7,1.8,2470.324,13.33,0.077,301.8
2020-03-14T00:43:03,42.805,6.029,-0.041,0.025,-0.031,104.0,107.0,100.0,13.4,1505.3,327.8,-0.7,1.8,2470.324,13.33,0.048,301.4
2020-03-14T00:46:03,42.805,6.029,-0.064,0.01,-0.035,103.0,108.0,102.0,13.4,1505.3,324.5,-0.7,1.8,2470.364,13.33,0.064,278.9
2020-03-14T00:49:03,42.805,6.029,0.001,0.04,-0.006,103.0,108.0,100.0,13.4,1505.3,327.8,-0.7,1.8,2470.356,13.33,0.04,1.4
2020-03-14T00:52:02,42.805,6.029,-0.032,0.044,-0.034,104.0,107.0,101.0,13.4,1505.3,326.0,-0.7,1.8,2470.319,13.33,0.054,324.0
2020-03-14T00:55:02,42.805,6.029,-0.064,0.014,-0.059,103.0,107.0,101.0,13.4,1505.3,324.7,-0.7,1.8,2470.31,13.33,0.065,282.3
2020-03-14T00:58:03,42.805,6.029,-0.051,0.018,-0.051,104.0,107.0,101.0,13.4,1505.3,328.1,-0.7,1.8,2470.336,13.33,0.054,289.4
2020-03-14T01:04:02,42.805,6.029,-0.068,0.026,-0.03,105.0,107.0,104.0,13.4,1505.3,325.2,-0.7,1.8,2470.376,13.31,0.072,290.9
2020-03-14T01:07:02,42.805,6.029,-0.034,0.029,-0.049,103.0,107.0,101.0,13.4,1505.3,322.8,-0.8,1.8,2470.351,13.31,0.044,310.5
2020-03-14T01:10:03,42.805,6.029,-0.033,0.025,-0.032,103.0,107.0,102.0,13.3,1505.3,323.6,-0.7,1.9,2470.349,13.32,0.041,307.1
2020-03-14T01:13:03,42.805,6.029,-0.042,0.015,-0.034,103.0,107.0,101.0,13.4,1505.3,324.2,-0.7,1.8,2470.304,13.32,0.044,289.6
2020-03-14T01:16:03,42.805,6.029,-0.055,0.005,-0.027,102.0,106.0,101.0,13.3,1505.3,327.1,-0.7,1.8,2470.305,13.32,0.055,275.2
2020-03-14T01:19:03,42.805,6.029,-0.039,0.022,-0.018,104.0,107.0,101.0,13.4,1505.3,324.1,-0.7,1.8,2470.338,13.32,0.044,299.4
2020-03-14T01:22:02,42.805,6.029,-0.037,0.024,-0.03,103.0,107.0,101.0,13.4,1505.3,326.0,-0.7,1.8,2470.309,13.32,0.044,303.0
2020-03-14T01:25:03,42.805,6.029,-0.055,0.05,-0.024,104.0,108.0,101.0,13.4,1505.3,327.0,-0.7,1.8,2470.334,13.33,0.074,312.3
2020-03-14T01:28:03,42.805,6.029,-0.058,0.009,-0.025,105.0,107.0,101.0,13.4,1505.3,325.3,-0.7,1.8,2470.321,13.33,0.058,278.8
2020-03-14T01:31:03,42.805,6.029,-0.018,0.025,-0.025,105.0,109.0,102.0,13.3,1505.3,325.9,-0.7,1.8,2470.31,13.33,0.03,324.2
2020-03-14T01:37:02,42.805,6.029,-0.037,0.024,-0.037,105.0,108.0,101.0,13.4,1505.3,323.0,-0.7,1.8,2470.346,13.31,0.044,303.0
2020-03-14T01:40:03,42.805,6.029,-0.048,0.029,-0.02,105.0,106.0,103.0,13.4,1505.3,324.7,-0.8,1.8,2470.31,13.31,0.056,301.1
2020-03-14T01:43:02,42.805,6.029,-0.035,0.036,-0.029,105.0,107.0,101.0,13.4,1505.3,325.6,-0.7,1.8,2470.296,13.32,0.05,315.8
2020-03-14T01:46:03,42.805,6.029,-0.004,0.029,0.004,103.0,107.0,101.0,13.3,1505.3,326.3,-0.7,1.8,2470.313,13.32,0.029,352.2
2020-03-14T01:49:03,42.805,6.029,-0.023,0.011,-0.037,105.0,108.0,100.0,13.4,1505.3,325.3,-0.7,1.9,2470.335,13.33,0.025,295.6
2020-03-14T01:52:02,42.805,6.029,-0.03,0.016,-0.022,103.0,109.0,102.0,13.4,1505.3,325.3,-0.7,1.8,2470.321,13.33,0.034,298.1
2020-03-14T01:55:03,42.805,6.029,-0.054,0.003,-0.051,104.0,108.0,101.0,13.4,1505.3,325.3,-0.7,1.8,2470.329,13.33,0.054,273.2
2020-03-14T01:58:03,42.805,6.029,-0.038,0.021,-0.027,105.0,107.0,101.0,13.4,1505.3,326.0,-0.7,1.8,2470.279,13.33,0.043,298.9
2020-03-14T02:04:02,42.805,6.029,-0.039,0.026,-0.046,104.0,108.0,102.0,13.4,1505.3,327.8,-0.7,1.8,2470.339,13.31,0.046,303.7
2020-03-14T02:07:02,42.805,6.029,-0.045,0.023,-0.046,105.0,106.0,101.0,13.4,1505.3,325.9,-0.7,1.8,2470.296,13.32,0.05,297.1
2020-03-14T02:10:03,42.805,6.029,-0.021,0.015,-0.032,105.0,107.0,102.0,13.4,1505.3,324.6,-0.7,1.8,2470.283,13.32,0.025,305.5
2020-03-14T02:13:03,42.805,6.029,-0.024,0.017,-0.042,105.0,108.0,101.0,13.3,1505.3,325.8,-0.7,1.8,2470.314,13.32,0.029,305.3
2020-03-14T02:16:03,42.805,6.029,-0.061,0.012,-0.046,104.0,107.0,101.0,13.4,1505.3,323.8,-0.7,1.8,2470.315,13.32,0.062,281.1
2020-03-14T02:19:03,42.805,6.029,-0.023,0.019,-0.047,104.0,106.0,100.0,13.3,1505.3,323.7,-0.7,1.9,2470.292,13.33,0.029,309.6
2020-03-14T02:22:02,42.805,6.029,-0.047,0.045,-0.04,104.0,107.0,101.0,13.4,1505.3,327.8,-0.7,1.8,2470.269,13.33,0.065,313.8
2020-03-14T02:25:03,42.805,6.029,-0.055,0.033,-0.038,104.0,107.0,101.0,13.4,1505.3,327.9,-0.7,1.8,2470.269,13.33,0.064,301.0
2020-03-14T02:28:03,42.805,6.029,-0.06,0.002,-0.042,104.0,108.0,101.0,13.4,1505.3,328.3,-0.7,1.8,2470.259,13.33,0.06,271.9
2020-03-14T02:31:03,42.805,6.029,-0.027,0.018,-0.041,104.0,108.0,101.0,13.3,1505.3,327.5,-0.7,1.8,2470.253,13.33,0.032,303.7
2020-03-14T02:34:03,42.805,6.029,-0.043,0.025,-0.028,103.0,107.0,101.0,13.3,1505.3,325.2,-0.7,1.8,2470.266,13.33,0.049,300.2
2020-03-14T02:37:02,42.805,6.029,-0.052,0.035,-0.031,104.0,106.0,101.0,13.4,1505.3,322.8,-0.8,1.8,2470.261,13.33,0.062,303.9
2020-03-14T02:40:02,42.805,6.029,-0.068,0.041,-0.047,104.0,108.0,101.0,13.3,1505.3,326.9,-0.7,1.8,2470.28,13.33,0.079,301.1
2020-03-14T02:43:03,42.805,6.029,-0.034,0.003,-0.043,104.0,108.0,101.0,13.4,1505.3,328.1,-0.7,1.8,2470.296,13.33,0.034,275.0
2020-03-14T02:46:03,42.805,6.029,-0.045,0.012,-0.06,105.0,105.0,100.0,13.4,1505.3,326.5,-0.7,1.8,2470.26,13.33,0.046,284.9
2020-03-14T02:49:03,42.805,6.029,-0.053,0.029,-0.052,104.0,107.0,101.0,13.4,1505.3,327.0,-0.7,1.9,2470.229,13.33,0.06,298.7
2020-03-14T02:52:02,42.805,6.029,-0.021,0.016,-0.051,103.0,107.0,101.0,13.3,1505.3,327.2,-0.7,1.8,2470.276,13.33,0.026,307.3
2020-03-14T02:55:03,42.805,6.029,-0.074,0.036,-0.038,102.0,108.0,101.0,13.4,1505.3,327.2,-0.7,1.8,2470.278,13.33,0.082,295.9
2020-03-14T02:58:03,42.805,6.029,-0.065,0.031,-0.048,103.0,107.0,100.0,13.4,1505.3,327.3,-0.7,1.8,2470.31,13.33,0.072,295.5
2020-03-14T03:04:02,42.805,6.029,-0.033,0.039,-0.007,104.0,108.0,101.0,13.4,1505.3,324.3,-0.7,1.8,2470.247,13.31,0.051,319.8
2020-03-14T03:10:02,42.805,6.029,-0.031,0.014,-0.032,104.0,107.0,102.0,13.3,1505.2,326.7,-0.7,1.8,2470.272,13.3,0.034,294.3
2020-03-14T03:13:02,42.805,6.029,-0.047,0.011,-0.036,102.0,109.0,101.0,13.3,1505.3,326.8,-0.7,1.8,2470.302,13.31,0.048,283.2
2020-03-14T03:16:03,42.805,6.029,-0.029,0.016,-0.035,104.0,106.0,102.0,13.4,1505.3,327.2,-0.7,1.8,2470.247,13.32,0.033,298.9
2020-03-14T03:19:03,42.805,6.029,-0.026,0.008,-0.007,105.0,106.0,101.0,13.4,1505.3,323.6,-0.7,1.8,2470.275,13.32,0.027,287.1
2020-03-14T03:22:02,42.805,6.029,-0.029,0.035,-0.025,103.0,106.0,101.0,13.4,1505.3,323.7,-0.7,1.8,2470.24,13.32,0.045,320.4
2020-03-14T03:25:03,42.805,6.029,-0.035,0.019,-0.048,103.0,106.0,101.0,13.3,1505.3,326.7,-0.7,1.9,2470.237,13.32,0.039,298.5
2020-03-14T03:28:03,42.805,6.029,-0.035,0.01,-0.012,104.0,107.0,102.0,13.4,1505.3,328.4,-0.7,1.9,2470.294,13.33,0.036,285.9
2020-03-14T03:31:02,42.805,6.029,-0.039,0.018,-0.019,103.0,106.0,103.0,13.4,1505.3,324.6,-0.7,1.8,2470.219,13.33,0.042,294.8
2020-03-14T03:34:02,42.805,6.029,-0.041,0.012,-0.029,104.0,107.0,101.0,13.3,1505.3,325.3,-0.7,1.8,2470.269,13.33,0.042,286.3
2020-03-14T03:37:02,42.805,6.029,-0.021,0.0,-0.024,103.0,106.0,101.0,13.3,1505.3,324.5,-0.7,1.8,2470.305,13.33,0.021,270.0
2020-03-14T03:40:03,42.805,6.029,-0.023,0.016,-0.018,104.0,106.0,101.0,13.4,1505.3,323.8,-0.7,1.8,2470.238,13.33,0.028,304.8
2020-03-14T03:43:03,42.805,6.029,-0.03,0.003,-0.05,104.0,106.0,101.0,13.3,1505.3,326.7,-0.7,1.8,2470.224,13.33,0.03,275.7
2020-03-14T03:46:03,42.805,6.029,-0.04,0.024,-0.016,105.0,107.0,101.0,13.4,1505.3,326.9,-0.7,1.8,2470.196,13.33,0.046,301.0
2020-03-14T03:49:03,42.805,6.029,-0.034,0.027,-0.02,105.0,107.0,101.0,13.3,1505.3,327.0,-0.7,1.8,2470.281,13.33,0.043,308.5
2020-03-14T03:52:02,42.805,6.029,-0.028,0.025,-0.03,103.0,108.0,100.0,13.4,1505.3,324.8,-0.7,1.8,2470.234,13.33,0.037,311.8
2020-03-14T03:55:03,42.805,6.029,-0.033,0.003,-0.01,104.0,107.0,101.0,13.3,1505.3,326.4,-0.7,1.8,2470.213,13.33,0.033,275.2
2020-03-14T03:58:03,42.805,6.029,-0.028,0.017,-0.029,104.0,106.0,101.0,13.4,1505.3,326.3,-0.7,1.8,2470.206,13.33,0.032,301.3
2020-03-14T04:04:02,42.805,6.029,-0.023,0.019,-0.021,105.0,107.0,101.0,13.4,1505.3,325.8,-0.7,1.9,2470.266,13.31,0.029,309.6
2020-03-14T04:07:02,42.805,6.029,-0.072,0.002,-0.037,103.0,107.0,102.0,13.3,1505.3,324.1,-0.7,1.8,2470.242,13.31,0.072,271.6
2020-03-14T04:10:03,42.805,6.029,-0.045,0.028,-0.039,104.0,107.0,102.0,13.4,1505.3,327.1,-0.7,1.8,2470.207,13.32,0.053,301.9
2020-03-14T04:13:03,42.805,6.029,-0.013,0.017,0.018,102.0,105.0,102.0,13.4,1505.3,327.7,-0.7,1.8,2470.202,13.32,0.021,322.6
2020-03-14T04:16:03,42.805,6.029,-0.027,0.006,-0.018,105.0,107.0,101.0,13.4,1505.3,326.1,-0.7,1.9,2470.234,13.32,0.027,282.5
2020-03-14T04:19:03,42.805,6.029,-0.011,0.012,-0.052,103.0,107.0,101.0,13.4,1505.3,325.5,-0.7,1.8,2470.222,13.33,0.016,317.5
2020-03-14T04:22:02,42.805,6.029,-0.025,0.006,-0.01,104.0,107.0,102.0,13.4,1505.3,326.4,-0.7,1.9,2470.198,13.33,0.025,283.5
2020-03-14T04:25:03,42.805,6.029,-0.036,0.03,-0.018,103.0,108.0,101.0,13.4,1505.3,327.8,-0.7,1.8,2470.229,13.33,0.046,309.8
2020-03-14T04:28:03,42.805,6.029,-0.035,0.036,-0.068,104.0,108.0,101.0,13.3,1505.3,326.8,-0.7,1.8,2470.203,13.33,0.05,315.8
2020-03-14T04:31:02,42.805,6.029,-0.031,0.025,-0.03,104.0,106.0,101.0,13.4,1505.3,324.5,-0.7,1.8,2470.233,13.33,0.039,308.9
2020-03-14T04:34:03,42.805,6.029,-0.045,0.011,-0.056,104.0,106.0,100.0,13.4,1505.3,326.0,-0.7,1.8,2470.209,13.33,0.046,283.7
2020-03-14T04:37:02,42.805,6.029,-0.053,0.016,-0.037,104.0,109.0,99.0,13.3,1505.3,325.8,-0.7,1.8,2470.248,13.33,0.055,286.8
2020-03-14T04:40:03,42.805,6.029,-0.028,0.042,-0.04,105.0,108.0,101.0,13.4,1505.3,325.0,-0.7,1.8,2470.244,13.33,0.05,326.3
2020-03-14T04:43:03,42.805,6.029,0.0,0.017,-0.04,105.0,105.0,101.0,13.4,1505.3,326.4,-0.7,1.8,2470.19,13.33,0.017,0.0
2020-03-14T04:46:03,42.805,6.029,-0.028,0.03,-0.036,103.0,106.0,101.0,13.4,1505.3,324.8,-0.7,1.8,2470.188,13.33,0.041,317.0
2020-03-14T04:49:03,42.805,6.029,-0.061,0.01,-0.07,106.0,107.0,100.0,13.3,1505.3,326.6,-0.7,1.8,2470.187,13.33,0.061,279.3
2020-03-14T04:52:03,42.805,6.029,0.0,0.029,-0.008,103.0,109.0,101.0,13.4,1505.3,326.8,-0.7,1.8,2470.24,13.33,0.028,0.0
2020-03-14T04:55:03,42.805,6.029,-0.031,-0.003,-0.06,104.0,106.0,100.0,13.4,1505.3,326.6,-0.7,1.8,2470.254,13.33,0.031,264.5
2020-03-14T04:58:03,42.805,6.029,-0.05,0.04,-0.048,102.0,106.0,102.0,13.3,1505.3,323.3,-0.7,1.8,2470.205,13.33,0.064,308.7
2020-03-14T05:04:02,42.805,6.029,-0.042,0.017,-0.031,103.0,107.0,101.0,13.4,1505.3,324.1,-0.7,1.8,2470.259,13.31,0.045,292.0
2020-03-14T05:07:02,42.805,6.029,-0.051,0.021,-0.055,104.0,107.0,100.0,13.4,1505.3,325.5,-0.7,1.9,2470.228,13.32,0.055,292.4
2020-03-14T05:10:03,42.805,6.029,-0.028,0.031,-0.055,103.0,106.0,100.0,13.3,1505.3,327.8,-0.7,1.8,2470.216,13.32,0.041,317.9
2020-03-14T05:13:03,42.805,6.029,-0.03,0.022,-0.068,102.0,106.0,100.0,13.3,1505.3,324.3,-0.7,1.8,2470.246,13.33,0.037,306.3
2020-03-14T05:16:03,42.805,6.029,-0.022,0.027,-0.038,103.0,106.0,99.0,13.4,1505.3,326.4,-0.7,1.8,2470.265,13.33,0.034,320.8
2020-03-14T05:19:03,42.805,6.029,-0.006,0.008,-0.041,103.0,106.0,100.0,13.4,1505.3,326.9,-0.7,1.8,2470.211,13.33,0.01,323.1
2020-03-14T05:22:02,42.805,6.029,-0.026,0.009,-0.066,102.0,108.0,101.0,13.4,1505.3,327.0,-0.7,1.8,2470.238,13.33,0.027,289.1
2020-03-14T05:25:03,42.805,6.029,-0.017,0.01,-0.034,102.0,108.0,100.0,13.3,1505.3,326.6,-0.7,1.8,2470.247,13.33,0.019,300.5
2020-03-14T05:28:03,42.805,6.029,-0.017,0.025,-0.033,103.0,106.0,103.0,13.3,1505.3,327.1,-0.7,1.8,2470.248,13.33,0.03,325.8
2020-03-14T05:31:03,42.805,6.029,-0.016,0.01,-0.025,103.0,106.0,100.0,13.4,1505.3,324.7,-0.7,1.8,2470.173,13.33,0.018,302.0
2020-03-14T05:34:03,42.805,6.029,-0.034,0.034,-0.018,104.0,107.0,101.0,13.4,1505.3,324.3,-0.7,1.8,2470.211,13.33,0.048,315.0
2020-03-14T05:37:02,42.805,6.029,-0.026,0.014,-0.044,102.0,107.0,100.0,13.4,1505.3,327.3,-0.7,1.8,2470.195,13.33,0.029,298.3
2020-03-14T05:40:03,42.805,6.029,-0.033,0.005,-0.009,103.0,105.0,100.0,13.4,1505.3,325.8,-0.7,1.8,2470.196,13.33,0.033,278.6
2020-03-14T05:43:03,42.805,6.029,-0.007,0.011,-0.022,104.0,109.0,101.0,13.3,1505.3,323.2,-0.7,1.8,2470.236,13.33,0.013,327.5
2020-03-14T05:46:03,42.805,6.029,-0.022,0.017,-0.031,103.0,109.0,101.0,13.4,1505.3,324.3,-0.7,1.8,2470.238,13.33,0.027,307.7
2020-03-14T05:49:03,42.805,6.029,-0.04,0.011,-0.037,103.0,105.0,101.0,13.4,1505.3,323.4,-0.7,1.8,2470.271,13.33,0.041,285.4
2020-03-14T05:52:02,42.805,6.029,-0.009,0.027,-0.06,103.0,105.0,99.0,13.4,1505.3,324.9,-0.7,1.8,2470.185,13.33,0.028,341.6
2020-03-14T05:55:03,42.805,6.029,-0.021,0.005,-0.079,103.0,106.0,101.0,13.4,1505.3,325.1,-0.7,1.9,2470.227,13.33,0.021,283.4
2020-03-14T05:58:03,42.805,6.029,-0.012,0.02,-0.054,103.0,105.0,100.0,13.4,1505.3,325.3,-0.7,1.8,2470.22,13.33,0.023,329.0
2020-03-14T06:04:02,42.805,6.029,-0.028,0.009,-0.048,102.0,106.0,100.0,13.3,1505.3,327.6,-0.7,1.8,2470.318,13.31,0.029,287.8
2020-03-14T06:07:02,42.805,6.029,-0.029,0.02,-0.063,102.0,106.0,100.0,13.4,1505.3,328.4,-0.7,1.9,2470.261,13.31,0.035,304.6
2020-03-14T06:10:03,42.805,6.029,-0.014,0.009,-0.042,103.0,106.0,101.0,13.4,1505.3,327.1,-0.7,1.8,2470.249,13.32,0.016,302.7
2020-03-14T06:13:03,42.805,6.029,-0.015,0.021,-0.015,103.0,107.0,100.0,13.4,1505.3,325.0,-0.7,1.8,2470.293,13.32,0.025,324.5
2020-03-14T06:16:03,42.805,6.029,-0.043,0.005,-0.036,102.0,106.0,101.0,13.4,1505.3,328.0,-0.7,1.8,2470.264,13.32,0.043,276.6
2020-03-14T06:19:03,42.805,6.029,-0.031,-0.002,-0.063,103.0,105.0,102.0,13.3,1505.3,324.5,-0.7,1.9,2470.281,13.32,0.031,266.3
2020-03-14T06:22:02,42.805,6.029,0.009,0.032,-0.004,101.0,107.0,101.0,13.4,1505.3,326.0,-0.7,1.8,2470.282,13.32,0.033,15.7
2020-03-14T06:25:03,42.805,6.029,-0.02,0.019,-0.022,102.0,105.0,100.0,13.3,1505.3,324.3,-0.7,1.8,2470.263,13.33,0.027,313.5
2020-03-14T06:28:03,42.805,6.029,-0.021,0.003,-0.043,103.0,105.0,100.0,13.4,1505.3,323.3,-0.7,1.8,2470.25,13.33,0.021,278.1
2020-03-14T06:31:03,42.805,6.029,-0.03,0.003,-0.031,102.0,105.0,101.0,13.4,1505.3,328.1,-0.7,1.9,2470.263,13.33,0.03,275.7
2020-03-14T06:34:03,42.805,6.029,-0.026,0.008,-0.051,104.0,106.0,101.0,13.4,1505.3,324.9,-0.7,1.8,2470.241,13.33,0.027,287.1
2020-03-14T06:37:03,42.805,6.029,-0.008,0.017,-0.045,103.0,107.0,100.0,13.4,1505.3,325.7,-0.7,1.9,2470.218,13.33,0.018,334.8
2020-03-14T06:40:03,42.805,6.029,-0.042,-0.004,-0.072,102.0,104.0,101.0,13.4,1505.3,323.7,-0.7,1.8,2470.258,13.33,0.042,264.6
2020-03-14T06:43:03,42.805,6.029,-0.038,0.016,-0.073,103.0,105.0,100.0,13.4,1505.3,325.5,-0.7,1.8,2470.26,13.33,0.041,292.8
2020-03-14T06:46:03,42.805,6.029,-0.06,0.017,-0.081,102.0,105.0,100.0,13.3,1505.3,327.1,-0.7,1.8,2470.285,13.33,0.062,285.8
2020-03-14T06:49:03,42.805,6.029,-0.04,0.014,-0.059,102.0,105.0,101.0,13.4,1505.3,326.9,-0.7,1.8,2470.266,13.32,0.042,289.3
2020-03-14T06:52:02,42.805,6.029,-0.006,0.012,-0.016,102.0,105.0,100.0,13.3,1505.3,324.0,-0.7,1.8,2470.244,13.33,0.013,333.4
2020-03-14T06:55:03,42.805,6.029,-0.005,0.009,-0.03,105.0,105.0,99.0,13.3,1505.3,325.6,-0.7,1.8,2470.248,13.33,0.01,330.9
2020-03-14T06:58:03,42.805,6.029,-0.038,0.0,-0.062,104.0,107.0,100.0,13.4,1505.3,323.7,-0.7,1.8,2470.261,13.33,0.038,270.0
2020-03-14T07:04:02,42.805,6.029,-0.021,0.005,-0.047,102.0,106.0,102.0,13.3,1505.3,327.3,-0.7,1.8,2470.292,13.31,0.021,283.4
2020-03-14T07:07:03,42.805,6.029,-0.018,0.024,-0.023,103.0,106.0,100.0,13.4,1505.3,325.8,-0.7,1.8,2470.32,13.31,0.03,323.1
2020-03-14T07:10:03,42.805,6.029,-0.015,0.025,-0.035,103.0,105.0,100.0,13.3,1505.3,327.7,-0.7,1.8,2470.312,13.32,0.029,329.0
2020-03-14T07:13:03,42.805,6.029,-0.025,0.012,-0.038,103.0,103.0,102.0,13.4,1505.3,325.7,-0.7,1.8,2470.276,13.32,0.027,295.6
2020-03-14T07:16:03,42.805,6.029,-0.043,0.01,-0.041,103.0,104.0,101.0,13.3,1505.3,323.7,-0.7,1.9,2470.292,13.32,0.044,283.1
2020-03-14T07:19:03,42.805,6.029,-0.053,-0.015,-0.054,103.0,104.0,100.0,13.4,1505.3,325.0,-0.7,1.8,2470.312,13.32,0.055,254.2
2020-03-14T07:22:02,42.805,6.029,-0.052,0.021,-0.05,103.0,104.0,100.0,13.4,1505.3,323.4,-0.8,1.9,2470.31,13.32,0.056,292.0
2020-03-14T07:25:03,42.805,6.029,-0.044,0.029,-0.046,102.0,104.0,101.0,13.3,1505.3,327.1,-0.7,1.8,2470.264,13.32,0.052,303.4
2020-03-14T07:28:03,42.805,6.029,-0.028,0.001,-0.056,103.0,105.0,101.0,13.4,1505.3,327.4,-0.7,1.8,2470.279,13.32,0.028,272.0
2020-03-14T07:31:03,42.805,6.029,-0.027,-0.011,-0.04,102.0,105.0,103.0,13.4,1505.3,327.2,-0.6,1.8,2470.323,13.32,0.029,247.8
2020-03-14T07:34:03,42.805,6.029,-0.02,0.0,-0.047,104.0,107.0,100.0,13.3,1505.3,326.7,-0.7,1.8,2470.324,13.32,0.02,270.0
2020-03-14T07:37:02,42.805,6.029,-0.057,0.001,-0.062,103.0,105.0,101.0,13.4,1505.3,322.9,-0.7,1.8,2470.303,13.32,0.057,271.0
2020-03-14T07:40:03,42.805,6.029,-0.034,0.001,-0.004,104.0,104.0,102.0,13.4,1505.3,325.7,-0.7,1.9,2470.313,13.32,0.034,271.7
2020-03-14T07:43:03,42.805,6.029,-0.02,0.014,-0.049,103.0,106.0,100.0,13.4,1505.3,327.3,-0.7,1.8,2470.307,13.32,0.024,305.0
2020-03-14T07:46:03,42.805,6.029,-0.029,0.01,-0.039,104.0,104.0,101.0,13.4,1505.3,323.7,-0.7,1.8,2470.264,13.32,0.03,289.0
2020-03-14T07:49:03,42.805,6.029,-0.026,0.012,-0.045,102.0,106.0,101.0,13.3,1505.3,323.7,-0.8,1.8,2470.321,13.32,0.028,294.8
2020-03-14T07:52:03,42.805,6.029,-0.03,0.021,-0.031,102.0,105.0,100.0,13.4,1505.3,325.1,-0.7,1.8,2470.344,13.33,0.036,305.0
2020-03-14T07:55:03,42.805,6.029,-0.027,0.009,-0.028,103.0,105.0,100.0,13.4,1505.3,326.3,-0.7,1.8,2470.314,13.32,0.028,288.4
2020-03-14T07:58:03,42.805,6.029,-0.043,0.011,-0.051,102.0,105.0,100.0,13.3,1505.3,327.2,-0.7,1.8,2470.319,13.32,0.044,284.3
2020-03-14T08:04:02,42.805,6.029,-0.018,0.005,-0.027,103.0,105.0,100.0,13.4,1505.2,325.9,-0.7,1.8,2470.365,13.3,0.018,285.5
2020-03-14T08:07:02,42.805,6.029,-0.023,0.007,-0.038,102.0,106.0,100.0,13.4,1505.3,324.6,-0.7,1.8,2470.362,13.31,0.024,286.9
2020-03-14T08:10:03,42.805,6.029,-0.028,0.005,-0.054,103.0,105.0,100.0,13.3,1505.3,324.5,-0.7,1.8,2470.368,13.32,0.028,280.1
2020-03-14T08:13:02,42.805,6.029,-0.016,-0.009,-0.032,102.0,103.0,101.0,13.3,1505.3,324.0,-0.7,1.9,2470.351,13.32,0.018,240.6
2020-03-14T08:16:03,42.805,6.029,-0.043,0.004,-0.03,104.0,108.0,101.0,13.4,1505.3,327.4,-0.7,1.9,2470.404,13.32,0.043,275.3
2020-03-14T08:19:03,42.805,6.029,-0.043,0.007,-0.074,104.0,103.0,100.0,13.3,1505.3,326.1,-0.7,1.8,2470.349,13.32,0.043,279.2
2020-03-14T08:22:03,42.805,6.029,-0.016,0.014,-0.066,103.0,104.0,101.0,13.4,1505.3,328.0,-0.7,1.8,2470.366,13.32,0.021,311.2
2020-03-14T08:25:03,42.805,6.029,-0.042,0.009,-0.073,104.0,104.0,100.0,13.3,1505.3,327.0,-0.7,1.8,2470.321,13.32,0.042,282.1
2020-03-14T08:28:03,42.805,6.029,-0.041,0.001,-0.086,103.0,105.0,100.0,13.4,1505.3,327.6,-0.7,1.8,2470.327,13.32,0.041,271.4
2020-03-14T08:31:03,42.805,6.029,-0.047,0.012,-0.036,103.0,105.0,101.0,13.4,1505.3,327.4,-0.7,1.8,2470.339,13.32,0.048,284.3
2020-03-14T08:34:03,42.805,6.029,-0.03,0.004,-0.055,102.0,104.0,101.0,13.4,1505.3,327.8,-0.7,1.9,2470.407,13.32,0.03,277.6
2020-03-14T08:37:03,42.805,6.029,-0.032,0.009,-0.041,104.0,104.0,100.0,13.4,1505.3,327.2,-0.7,1.8,2470.326,13.32,0.033,285.7
2020-03-14T08:40:03,42.805,6.029,-0.026,0.021,-0.047,103.0,105.0,100.0,13.3,1505.3,325.0,-0.7,1.9,2470.35,13.32,0.033,308.9
2020-03-14T08:43:03,42.805,6.029,-0.004,0.008,-0.027,105.0,104.0,100.0,13.4,1505.3,324.0,-0.7,1.8,2470.378,13.32,0.008,333.4
2020-03-14T08:46:03,42.805,6.029,-0.029,0.007,-0.036,103.0,106.0,102.0,13.4,1505.3,326.3,-0.7,1.9,2470.38,13.32,0.029,283.6
2020-03-14T08:49:03,42.805,6.029,-0.021,-0.002,-0.057,103.0,105.0,101.0,13.4,1505.3,327.4,-0.7,1.8,2470.397,13.32,0.021,264.6
2020-03-14T08:52:02,42.805,6.029,-0.037,-0.012,-0.047,102.0,105.0,101.0,13.4,1505.3,326.8,-0.7,1.9,2470.422,13.32,0.038,252.0
2020-03-14T08:55:03,42.805,6.029,-0.021,0.003,-0.049,104.0,104.0,100.0,13.4,1505.3,326.9,-0.7,1.8,2470.403,13.32,0.021,278.1
2020-03-14T08:58:03,42.805,6.029,-0.017,0.006,-0.036,104.0,105.0,99.0,13.3,1505.3,325.6,-0.7,1.8,2470.422,13.32,0.018,289.4
2020-03-14T09:04:02,42.805,6.029,-0.026,0.01,-0.06,104.0,105.0,100.0,13.4,1505.2,325.8,-0.7,1.8,2470.44,13.3,0.027,291.0
2020-03-14T09:07:03,42.805,6.029,-0.028,0.002,-0.031,104.0,105.0,101.0,13.4,1505.3,325.9,-0.7,1.8,2470.39,13.31,0.028,274.1
2020-03-14T09:10:03,42.805,6.029,-0.062,0.004,-0.065,104.0,105.0,101.0,13.3,1505.3,324.3,-0.7,1.8,2470.387,13.32,0.062,273.7
2020-03-14T09:13:03,42.805,6.029,-0.06,-0.007,-0.062,103.0,105.0,101.0,13.3,1505.3,324.0,-0.7,1.8,2470.437,13.32,0.06,263.3
2020-03-14T09:16:03,42.805,6.029,-0.029,-0.005,-0.044,105.0,106.0,102.0,13.4,1505.3,325.9,-0.7,1.8,2470.406,13.32,0.029,260.2
2020-03-14T09:19:03,42.805,6.029,-0.047,0.006,-0.057,102.0,105.0,102.0,13.4,1505.3,325.3,-0.8,1.9,2470.413,13.32,0.047,277.3
2020-03-14T09:22:02,42.805,6.029,-0.024,-0.011,-0.011,103.0,105.0,101.0,13.4,1505.3,326.0,-0.7,1.9,2470.44,13.32,0.026,245.4
2020-03-14T09:25:03,42.805,6.029,-0.051,0.012,-0.061,104.0,104.0,103.0,13.4,1505.3,323.6,-0.7,1.8,2470.37,13.32,0.052,283.2
2020-03-14T09:28:03,42.805,6.029,-0.041,-0.021,-0.008,104.0,107.0,101.0,13.4,1505.3,326.4,-0.7,1.8,2470.414,13.32,0.046,242.9
2020-03-14T09:31:03,42.805,6.029,-0.039,-0.011,-0.057,104.0,104.0,100.0,13.3,1505.3,326.0,-0.7,1.8,2470.418,13.32,0.04,254.3
2020-03-14T09:34:03,42.805,6.029,-0.05,-0.004,-0.045,103.0,105.0,100.0,13.4,1505.3,324.9,-0.7,1.9,2470.419,13.32,0.05,265.4
2020-03-14T09:37:02,42.805,6.029,-0.023,-0.005,-0.08,104.0,106.0,101.0,13.3,1505.3,326.3,-0.7,1.8,2470.403,13.32,0.023,257.7
2020-03-14T09:40:03,42.805,6.029,-0.01,0.015,-0.055,103.0,106.0,101.0,13.4,1505.3,326.3,-0.7,1.8,2470.406,13.32,0.018,326.3
2020-03-14T09:43:03,42.805,6.029,-0.047,0.026,-0.021,105.0,106.0,100.0,13.4,1505.3,325.7,-0.7,1.8,2470.414,13.32,0.053,298.9
2020-03-14T09:46:03,42.805,6.029,-0.034,0.016,-0.031,105.0,105.0,102.0,13.4,1505.3,323.5,-0.7,1.8,2470.414,13.32,0.037,295.2
2020-03-14T09:49:03,42.805,6.029,-0.025,-0.006,-0.057,105.0,106.0,100.0,13.4,1505.3,326.7,-0.7,1.8,2470.419,13.32,0.025,256.5
2020-03-14T09:52:03,42.805,6.029,-0.037,0.002,-0.074,103.0,104.0,101.0,13.3,1505.3,328.2,-0.7,1.8,2470.401,13.32,0.037,273.1
2020-03-14T09:55:03,42.805,6.029,-0.044,-0.006,-0.055,103.0,106.0,102.0,13.4,1505.3,326.4,-0.7,1.8,2470.433,13.32,0.044,262.2
2020-03-14T09:58:03,42.805,6.029,-0.022,-0.009,-0.03,102.0,105.0,102.0,13.4,1505.3,324.0,-0.7,1.9,2470.382,13.32,0.023,247.8
2020-03-14T10:04:03,42.805,6.029,-0.05,0.016,-0.077,102.0,105.0,100.0,13.4,1505.2,326.9,-0.8,1.8,2470.436,13.3,0.052,287.7